Location: Rio Negrinho
(26.2394°S, 49.4999°W)
Time: 02:23:15
(UTC+00:00)

SEDSat Delta rocket - Pass Details

Date: 04 October 2020
Orbit: 533 x 1000 km, 31.4° (Epoch: 20 October)

Event Time Altitude Azimuth Distance (km) Brightness Sun altitude
Rises 22:58:28 0° 276° (W) 3,436 8.0 -22.5°
Reaches altitude 10° 23:01:13 10° 272° (W) 2,425 7.0 -23.1°
Maximum altitude 23:06:53 60° 193° (SSW) 853 3.8 -24.3°
Enters shadow 23:08:05 47° 142° (SE) 960 3.8 -24.5°
